64013000, 5301503, 2016-12-01 00:00:00, 13.35760, 109.26660,   0,  10,   1, -5.00, 1014.40, 15.00, 1,   8, 255, 0.000
64013000, 5301503, 2016-12-01 01:00:00, 13.35760, 109.26660,   0,  11,   1, -5.00, 1015.10, 15.00, 0,  11, 255, 0.000
64013000, 5301503, 2016-12-01 02:00:00, 13.35760, 109.26660,   0,  12,   1, -5.00, 1015.20, 15.00, 1,  14, 255, 0.000
64013000, 5301503, 2016-12-01 03:00:00, 13.35760, 109.26660,   0,  11,   1, -5.00, 1015.60, 15.00, 0,  11, 255, 0.000
64013000, 5301503, 2016-12-01 04:00:00, 13.35760, 109.26660,   0,  10,   1, -5.00, 1014.90, 15.00, 0,   9, 255, 0.000
64013000, 5301503, 2016-12-01 05:00:00, 13.35760, 109.26660,   0,  11,   1, -5.00, 1014.20, 15.00, 0,  10, 255, 0.000
64013000, 5301503, 2016-12-01 06:00:00, 13.35760, 109.26660,   0,  11,   1, -5.00, 1013.60, 15.00, 0,  15, 255, 0.000
64013000, 5301503, 2016-12-01 07:00:00, 13.35760, 109.26660,   0,  12,   1, -5.00, 1012.90, 15.00, 0,   7, 255, 0.000
64013000, 5301503, 2016-12-01 08:00:00, 13.35760, 109.26660,   0,  11,   1, -5.00, 1013.00, 15.00, 1,  10, 255, 0.000
64013000, 5301503, 2016-12-01 09:00:00, 13.35760, 109.26660,   0,  11,   1, -5.00, 1013.20, 15.00, 0,  10, 255, 0.000
64013000, 5301503, 2016-12-01 10:00:00, 13.35760, 109.26660,   0,  11,   1, -5.00, 1013.40, 15.00, 1,   8, 255, 0.000
64013000, 5301503, 2016-12-01 11:00:00, 13.35760, 109.26660,   0,  11,   1, -5.00, 1014.00, 15.00, 0,  10, 255, 0.000
64013000, 5301503, 2016-12-01 12:00:00, 13.35760, 109.26660,   0,  10,   1, -5.00, 1014.60, 15.00, 1,   8, 255, 0.000
64013000, 5301503, 2016-12-01 13:00:00, 13.35760, 109.26660,   0,  11,   1, -5.00, 1014.50, 15.00, 1,  10, 255, 0.000
64013000, 5301503, 2016-12-01 14:00:00, 13.35760, 109.26660,   0,  12,   1, -5.00, 1014.90, 15.00, 1,   1, 255, 0.000
64013000, 5301503, 2016-12-01 15:00:00, 13.35760, 109.26660,   0,  11,   1, -5.00, 1015.10, 15.00, 0,  10, 255, 0.000
64013000, 5301503, 2016-12-01 16:00:00, 13.35760, 109.26660,   0,  10,   1, -5.00, 1015.00, 15.00, 1,   8, 255, 0.000
64013000, 5301503, 2016-12-01 17:00:00, 13.35760, 109.26660,   0,  12,   2, -5.00, 1014.50, 15.00, 0,   9, 255, 0.000
64013000, 5301503, 2016-12-01 18:00:00, 13.35760, 109.26660,   0,  11,   1, -5.00, 1014.00, 15.00, 0,   8, 255, 0.000
64013000, 5301503, 2016-12-01 19:00:00, 13.35760, 109.26660,   0,  11,   1, -5.00, 1013.30, 15.00, 0,   4, 255, 0.000
64013000, 5301503, 2016-12-01 20:00:00, 13.35760, 109.26660,   0,  11,   1, -5.00, 1013.00, 15.00, 0,   7, 255, 0.000
64013000, 5301503, 2016-12-01 21:00:00, 13.35760, 109.26660,   0,  11,   1, -5.00, 1013.10, 15.00, 1,   8, 255, 0.000
64013000, 5301503, 2016-12-01 22:00:00, 13.35760, 109.26660,   0,  11,   1, -5.00, 1013.40, 15.00, 1,   9, 255, 0.000
64013000, 5301503, 2016-12-01 23:00:00, 13.35780, 109.26660,   0,  12,   2, -5.00, 1013.80, 15.00, 1,   8, 255, 0.000
64013000, 5301503, 2016-12-02 00:00:00, 13.35760, 109.26660,   0,  10,   1, -5.00, 1014.30, 15.00, 0,   8, 255, 0.000
64013000, 5301503, 2016-12-02 01:00:00, 13.35760, 109.26660,   0,  10,   1, -5.00, 1014.90, 15.00, 0,  11, 255, 0.000
64013000, 5301503, 2016-12-02 02:00:00, 13.35760, 109.26660,   0,  12,   1, -5.00, 1015.40, 15.00, 1,   7, 255, 0.000
64013000, 5301503, 2016-12-02 03:00:00, 13.35760, 109.26660,   0,  11,   1, -5.00, 1015.20, 15.00, 0,   8, 255, 0.000
64013000, 5301503, 2016-12-02 04:00:00, 13.35760, 109.26660,   0,  10,   1, -5.00, 1014.90, 15.00, 0,  18, 255, 0.000
64013000, 5301503, 2016-12-02 05:00:00, 13.35760, 109.26660,   0,  11,   1, -5.00, 1014.00, 15.00, 0,  10, 255, 0.000
64013000, 5301503, 2016-12-02 06:00:00, 13.35760, 109.26660,   0,  11,   1, -5.00, 1012.80, 15.00, 1,   8, 255, 0.000
64013000, 5301503, 2016-12-02 07:00:00, 13.35760, 109.26660,   0,  11,   1, -5.00, 1012.30, 15.00, 1,   9, 255, 0.000
64013000, 5301503, 2016-12-02 08:00:00, 13.35760, 109.26660,   0,  11,   1, -5.00, 1012.20, 15.00, 1,  12, 255, 0.000
64013000, 5301503, 2016-12-02 09:00:00, 13.35760, 109.26660,   0,  11,   1, -5.00, 1012.20, 15.00, 0,   1, 255, 0.000
64013000, 5301503, 2016-12-02 10:00:00, 13.35760, 109.26660,   0,  11,   1, -5.00, 1012.80, 15.00, 1,  10, 255, 0.000
64013000, 5301503, 2016-12-02 11:00:00, 13.35760, 109.26660,   0,  11,   1, -5.00, 1013.10, 15.00, 0,   8, 255, 0.000
64013000, 5301503, 2016-12-02 12:00:00, 13.35760, 109.26660,   0,  11,   1, -5.00, 1013.60, 15.00, 1,   7, 255, 0.000
64013000, 5301503, 2016-12-02 13:00:00, 13.35760, 109.26660,   0,  11,   1, -5.00, 1013.90, 15.00, 0,  12, 255, 0.000
64013000, 5301503, 2016-12-02 14:00:00, 13.35760, 109.26660,   0,  11,   1, -5.00, 1014.20, 15.00, 0,   8, 255, 0.000
64013000, 5301503, 2016-12-02 15:00:00, 13.35760, 109.26660,   0,  11,   1, -5.00, 1014.40, 15.00, 0,  21, 255, 0.000
64013000, 5301503, 2016-12-02 16:00:00, 13.35760, 109.26660,   0,  10,   1, -5.00, 1014.00, 15.00, 0,   9, 255, 0.000
64013000, 5301503, 2016-12-02 17:00:00, 13.35760, 109.26660,   0,  12,   1, -5.00, 1013.60, 15.00, 1,  11, 255, 0.000
64013000, 5301503, 2016-12-02 18:00:00, 13.35760, 109.26660,   0,  11,   1, -5.00, 1013.20, 15.00, 0,  10, 255, 0.000
64013000, 5301503, 2016-12-02 19:00:00, 13.35760, 109.26660,   0,  11,   1, -5.00, 1013.00, 15.00, 0,  10, 255, 0.000
64013000, 5301503, 2016-12-02 20:00:00, 13.35760, 109.26660,   0,  11,   1, -5.00, 1012.70, 15.00, 0,   8, 255, 0.000
64013000, 5301503, 2016-12-02 21:00:00, 13.35760, 109.26660,   0,  11,   1, -5.00, 1013.00, 15.00, 0,   9, 255, 0.000
64013000, 5301503, 2016-12-02 22:00:00, 13.35760, 109.26660,   0,  11,   1, -5.00, 1013.30, 15.00, 0,   4, 255, 0.000
64013000, 5301503, 2016-12-02 23:00:00, 13.35760, 109.26660,   0,  11,   1, -5.00, 1014.00, 15.00, 0,   8, 255, 0.000
64013000, 5301503, 2016-12-03 00:00:00, 13.35760, 109.26660,   0,  11,   1, -5.00, 1014.90, 15.00, 1,   1, 255, 0.000
64013000, 5301503, 2016-12-03 01:00:00, 13.35760, 109.26660,   0,  10,   1, -5.00, 1015.60, 15.00, 0,  10, 255, 0.000
64013000, 5301503, 2016-12-03 02:00:00, 13.35760, 109.26660,   0,  12,   1, -5.00, 1015.70, 15.00, 1,   8, 255, 0.000
64013000, 5301503, 2016-12-03 03:00:00, 13.35760, 109.26660,   0,  10,   1, -5.00, 1015.50, 15.00, 0,   9, 255, 0.000
64013000, 5301503, 2016-12-03 04:00:00, 13.35760, 109.26660,   0,  10,   1, -5.00, 1015.10, 15.00, 0,   7, 255, 0.000
64013000, 5301503, 2016-12-03 05:00:00, 13.35760, 109.26660,   0,  10,   1, -5.00, 1014.10, 15.00, 1,  12, 255, 0.000
64013000, 5301503, 2016-12-03 06:00:00, 13.35760, 109.26660,   0,  10,   1, -5.00, 1013.30, 15.00, 1,   8, 255, 0.000
64013000, 5301503, 2016-12-03 07:00:00, 13.35760, 109.26660,   0,  11,   1, -5.00, 1012.40, 15.00, 0,   9, 255, 0.000
64013000, 5301503, 2016-12-03 08:00:00, 13.35780, 109.26660,   0,  11,   1, -5.00, 1012.10, 15.00, 0,  10, 255, 0.000
64013000, 5301503, 2016-12-03 09:00:00, 13.35760, 109.26660,   0,  11,   1, -5.00, 1012.30, 15.00, 0,   7, 255, 0.000
64013000, 5301503, 2016-12-03 10:00:00, 13.35760, 109.26660,   0,  11,   1, -5.00, 1012.90, 15.00, 1,   8, 255, 0.000
64013000, 5301503, 2016-12-03 11:00:00, 13.35760, 109.26660,   0,  10,   1, -5.00, 1013.20, 15.00, 1,   1, 255, 0.000
64013000, 5301503, 2016-12-03 12:00:00, 13.35760, 109.26660,   0,  11,   1, -5.00, 1013.80, 15.00, 1,   8, 255, 0.000
64013000, 5301503, 2016-12-03 13:00:00, 13.35760, 109.26660,   0,  11,   1, -5.00, 1013.90, 15.00, 0,   8, 255, 0.000
64013000, 5301503, 2016-12-03 14:00:00, 13.35760, 109.26660,   0,  11,   2, -5.00, 1013.90, 15.00, 0,   8, 255, 0.000
64013000, 5301503, 2016-12-03 15:00:00, 13.35760, 109.26660,   0,  10,   1, -5.00, 1013.80, 15.00, 0,  14, 255, 0.000
64013000, 5301503, 2016-12-03 16:00:00, 13.35760, 109.26660,   0,  10,   1, -5.00, 1013.80, 15.00, 0,   9, 255, 0.000
64013000, 5301503, 2016-12-03 17:00:00, 13.35760, 109.26660,   0,  11,   1, -5.00, 1013.40, 15.00, 0,  10, 255, 0.000
64013000, 5301503, 2016-12-03 18:00:00, 13.35760, 109.26660,   0,  10,   1, -5.00, 1013.00, 15.00, 1,   8, 255, 0.000
64013000, 5301503, 2016-12-03 19:00:00, 13.35760, 109.26660,   0,  11,   1, -5.00, 1012.50, 15.00, 0,  11, 255, 0.000
64013000, 5301503, 2016-12-03 20:00:00, 13.35760, 109.26660,   0,  11,   1, -5.00, 1012.30, 15.00, 0,   7, 255, 0.000
64013000, 5301503, 2016-12-03 21:00:00, 13.35760, 109.26660,   0,  11,   1, -5.00, 1012.40, 15.00, 1,  12, 255, 0.000
64013000, 5301503, 2016-12-03 22:00:00, 13.35760, 109.26660,   0,  11,   1, -5.00, 1012.50, 15.00, 0,   8, 255, 0.000
64013000, 5301503, 2016-12-03 23:00:00, 13.35760, 109.26660,   0,  11,   1, -5.00, 1013.10, 15.00, 0,  11, 255, 0.000
64013000, 5301503, 2016-12-04 00:00:00, 13.35760, 109.26660,   0,  11,   1, -5.00, 1013.80, 15.00, 0,   8, 255, 0.000
64013000, 5301503, 2016-12-04 01:00:00, 13.35760, 109.26660,   0,  11,   1, -5.00, 1014.00, 15.00, 1,  16, 255, 0.000
64013000, 5301503, 2016-12-04 02:00:00, 13.35760, 109.26660,   0,  11,   1, -5.00, 1014.10, 15.00, 1,   9, 255, 0.000
64013000, 5301503, 2016-12-04 03:00:00, 13.35760, 109.26660,   0,  11,   1, -5.00, 1014.00, 15.00, 1,   9, 255, 0.000
64013000, 5301503, 2016-12-04 04:00:00, 13.35760, 109.26660,   0,  10,   1, -5.00, 1014.00, 15.00, 1,   8, 255, 0.000
64013000, 5301503, 2016-12-04 05:00:00, 13.35760, 109.26660,   0,  11,   1, -5.00, 1013.30, 15.00, 0,  11, 255, 0.000
64013000, 5301503, 2016-12-04 06:00:00, 13.35760, 109.26660,   0,  11,   1, -5.00, 1012.30, 15.00, 0,   7, 255, 0.000
64013000, 5301503, 2016-12-04 07:00:00, 13.35760, 109.26660,   0,  11,   1, -5.00, 1011.80, 15.00, 0,  10, 255, 0.000
64015370, 5301502, 2016-12-01 20:59:00, 12.07300, 109.51100,   0,  11,   3, 27.28, 1013.50, 16.40, 0,   9, 255, 0.000
64015370, 5301502, 2016-12-01 22:00:00, 12.00220, 109.48980,   0,  11,   1, 25.90, 1010.80, 14.00, 0,   9, 255, 0.000
64015370, 5301502, 2016-12-01 23:00:00, 11.93460, 109.46580,   0,  10,   2, 25.91, 1011.50, 14.00, 0,  10, 255, 0.000
64015370, 5301502, 2016-12-02 00:00:00, 11.86820, 109.44040,   0,  10,   2, 26.27, 1012.10, 14.00, 0,  11, 255, 0.000
64015370, 5301502, 2016-12-02 01:00:00, 11.80460, 109.41660,   0,  11,   1, 26.16, 1012.60, 14.00, 0,   9, 255, 0.000
64015370, 5301502, 2016-12-02 02:00:00, 11.74080, 109.39280,   0,  11,   1, 26.52, 1013.30, 14.00, 1,   8, 255, 0.000
64015370, 5301502, 2016-12-02 03:00:00, 11.67780, 109.36880,   0,  12,   1, 26.54, 1012.90, 14.00, 0,   8, 255, 0.000
64015370, 5301502, 2016-12-02 04:00:00, 11.61320, 109.34380,   0,  12,   1, 26.57, 1012.00, 14.00, 0,   8, 255, 0.000
64015370, 5301502, 2016-12-02 05:00:00, 11.55000, 109.31300,   0,  11,   1, 26.57, 1011.60, 14.00, 0,  14, 255, 0.000
64015370, 5301502, 2016-12-02 06:00:00, 11.48720, 109.27680,   0,  11,   1, 26.57, 1010.80, 14.00, 0,  10, 255, 0.000
64015370, 5301502, 2016-12-02 07:00:00, 11.42600, 109.23940,   0,  10,   1, 26.57, 1010.00, 14.00, 0,  15, 255, 0.000
64015370, 5301502, 2016-12-02 08:00:00, 11.37300, 109.20780,   0,  11,   1, 26.47, 1009.70, 14.00, 0,   8, 255, 0.000
64015370, 5301502, 2016-12-02 09:00:00, 11.32820, 109.18060,   0,  11,   1, 26.33, 1009.60, 14.00, 0,   4, 255, 0.000
64015370, 5301502, 2016-12-02 10:00:00, 11.28560, 109.15600,   0,  12,   2, 26.55, 1009.80, 14.00, 0,  12, 255, 0.000
64015370, 5301502, 2016-12-02 11:00:00, 11.25080, 109.13580,   0,  12,   1, 27.80, 1010.20, 14.00, 0,  11, 255, 0.000
64015370, 5301502, 2016-12-02 12:00:00, 11.21740, 109.12340,   0,  12,   2, 28.35, 1010.60, 14.00, 0,   8, 255, 0.000
64015370, 5301502, 2016-12-02 13:00:00, 11.18460, 109.11140,   0,  11,   1, 28.46, 1010.90, 14.00, 0,   9, 255, 0.000
64015370, 5301502, 2016-12-02 14:00:00, 11.15080, 109.09860,   0,  11,   1, 28.17, 1011.20, 14.00, 0,   9, 255, 0.000
64015370, 5301502, 2016-12-02 15:00:00, 11.12000, 109.08460,   0,  12,   1, 27.60, 1011.50, 14.00, 0,  12, 255, 0.000
64015370, 5301502, 2016-12-02 16:00:00, 11.08960, 109.07240,   0,  12,   1, 26.76, 1011.10, 14.00, 0,  10, 255, 0.000
64015370, 5301502, 2016-12-02 17:00:00, 11.06120, 109.05840,   0,  11,   1, 26.73, 1011.30, 13.80, 0,  10, 255, 0.000
64015370, 5301502, 2016-12-02 18:00:00, 11.03400, 109.04900,   0,  11,   1, 26.73, 1010.40, 13.80, 0,  10, 255, 0.000
64015370, 5301502, 2016-12-02 19:00:00, 11.00740, 109.04260,   0,  12,   2, 26.74, 1010.20, 13.80, 0,  12, 255, 0.000
64015370, 5301502, 2016-12-02 20:00:00, 10.98000, 109.03760,   0,  12,   1, 26.73, 1010.00, 13.80, 0,  10, 255, 0.000
64015370, 5301502, 2016-12-02 21:00:00, 10.95200, 109.03160,   0,  11,   2, 26.70, 1010.60, 13.80, 0,   9, 255, 0.000
64015370, 5301502, 2016-12-02 22:00:00, 10.92520, 109.02740,   0,  11,   1, 26.74, 1010.70, 13.80, 0,  10, 255, 0.000
64015370, 5301502, 2016-12-02 23:00:00, 10.89820, 109.02440,   0,  10,   2, 26.73, 1011.20, 13.80, 0,   8, 255, 0.000
64015370, 5301502, 2016-12-03 00:00:00, 10.87140, 109.02120,   0,  11,   1, 26.72, 1011.80, 13.80, 0, 101, 255, 0.000
64015370, 5301502, 2016-12-03 01:00:00, 10.84500, 109.01500,   0,  11,   1, 26.74, 1012.30, 13.80, 0,  10, 255, 0.000
64015370, 5301502, 2016-12-03 02:00:00, 10.81920, 109.00280,   0,  11,   1, 26.76, 1012.30, 13.80, 0,   8, 255, 0.000
64015370, 5301502, 2016-12-03 03:00:00, 10.79240, 108.98600,   0,  12,   1, 26.80, 1012.20, 13.80, 0,  12, 255, 0.000
64015370, 5301502, 2016-12-03 04:00:00, 10.76740, 108.96820,   0,  12,   1, 26.84, 1011.90, 13.80, 0,  10, 255, 0.000
64015370, 5301502, 2016-12-03 05:00:00, 10.74580, 108.95080,   0,  11,   1, 26.84, 1010.90, 13.80, 0,   8, 255, 0.000
64015370, 5301502, 2016-12-03 06:00:00, 10.72780, 108.93360,   0,  10,   1, 26.82, 1010.00, 13.80, 0,   8, 255, 0.000
64015370, 5301502, 2016-12-03 07:00:00, 10.70940, 108.91600,   0,  11,   1, 26.86, 1009.30, 13.80, 0,  10, 255, 0.000
64015370, 5301502, 2016-12-03 08:00:00, 10.69280, 108.89640,   0,  11,   2, 26.89, 1008.50, 13.80, 0,   8, 255, 0.000
64015370, 5301502, 2016-12-03 09:00:00, 10.67960, 108.87880,   0,  11,   1, 26.76, 1008.70, 13.80, 0,  10, 255, 0.000
64015370, 5301502, 2016-12-03 10:00:00, 10.66460, 108.85920,   0,  12,   2, 26.77, 1009.10, 13.80, 0,  11, 255, 0.000
64015370, 5301502, 2016-12-03 11:00:00, 10.64840, 108.83600,   0,  11,   1, 26.78, 1009.70, 13.80, 0,  11, 255, 0.000
64015370, 5301502, 2016-12-03 12:00:00, 10.63100, 108.81160,   0,  12,   1, 26.77, 1010.30, 13.80, 0,  10, 255, 0.000
64015370, 5301502, 2016-12-03 13:00:00, 10.61280, 108.78920,   0,  11,   1, 26.77, 1010.70, 13.80, 0,  11, 255, 0.000
64015370, 5301502, 2016-12-03 14:00:00, 10.59400, 108.76740,   0,  11,   1, 26.76, 1011.00, 13.80, 0,  17, 255, 0.000
64015370, 5301502, 2016-12-03 15:00:00, 10.57420, 108.74800,   0,  12,   1, 26.76, 1011.20, 13.80, 0,  12, 255, 0.000
64015370, 5301502, 2016-12-03 16:00:00, 10.55520, 108.72700,   0,  12,   1, 26.75, 1011.20, 13.80, 0,   7, 255, 0.000
64015370, 5301502, 2016-12-03 17:00:00, 10.53640, 108.70700,   0,  11,   1, 26.74, 1011.00, 13.80, 0,  11, 255, 0.000
64015370, 5301502, 2016-12-03 18:00:00, 10.51820, 108.69060,   0,  11,   1, 26.76, 1010.20, 13.80, 0,   7, 255, 0.000
64015370, 5301502, 2016-12-03 19:00:00, 10.49960, 108.67760,   0,  12,   1, 26.74, 1009.70, 13.80, 0,   8, 255, 0.000
64015370, 5301502, 2016-12-03 20:00:00, 10.48280, 108.66640,   0,  12,   1, 26.75, 1009.80, 13.80, 0,  10, 255, 0.000
64015370, 5301502, 2016-12-03 21:00:00, 10.46700, 108.66060,   0,  10,   1, 26.76, 1010.00, 13.80, 0,  19, 255, 0.000
64015370, 5301502, 2016-12-03 22:00:00, 10.45240, 108.65720,   0,  11,   1, 26.75, 1010.50, 13.80, 0,   7, 255, 0.000
64015370, 5301502, 2016-12-03 23:00:00, 10.43860, 108.65620,   0,  11,   2, 26.80, 1011.00, 13.80, 0,   8, 255, 0.000
64015370, 5301502, 2016-12-04 00:00:00, 10.42820, 108.65440,   0,  11,   1, 26.80, 1011.70, 13.80, 0,   8, 255, 0.000
64015370, 5301502, 2016-12-04 01:00:00, 10.41400, 108.65120,   0,  11,   1, 26.83, 1012.30, 13.80, 0,  11, 255, 0.000
64015370, 5301502, 2016-12-04 02:00:00, 10.39880, 108.64540,   0,  11,   1, 26.84, 1012.90, 13.80, 0,  11, 255, 0.000
64015370, 5301502, 2016-12-04 03:00:00, 10.38160, 108.63480,   0,  11,   1, 26.84, 1011.90, 13.40, 0,  16, 255, 0.000
